ROMMA est une association bénévole à but non lucratif. Votre soutien est indispensable : ADHERER à ROMMA ou FAIRE un DON

Engins - (38, Isère)

Vercors (906 m)   Longitude: 05° 37' E   Latitude: 45° 11' N Station partenaire n°139
 

Détail journalier du     <<     >>

Température Precipitation Humidité Vent Dir Rafale Dir. rafale Ensol.
Heure (°C) (mm) (%) (km/h) (km/h) (min)
01:00 5.70838SSO21SO0
02:00 5.80818SSO21SSE0
03:00 4.70877SSO18S0
04:00 4.70826SSO15SO0
05:00 4.40828SSO21SO0
06:00 4.30827SSO18SO0
07:00 4.30828SSO16SSO0
08:00 4.507511SSO29SSO5
09:00 6.606711SSO31SSE0
10:00 7.206312SSO34S0
11:00 8.306412S32S0
12:00 9.806814S32S0
13:00 10.007514S34SSE0
14:00 11.607611S29SSE0
15:00 12.70785SSO18SSE0
16:00 13.20712E11SSE0
17:00 13.10791ENE5ENE0
18:00 12.70802NE8SSE0
19:00 11.70832NNO10NNO0
20:00 10.90861NNO6NNO0
21:00 11.30842O6NNO0
22:00 11.10822O11NO0
23:00 11.30836N21NNO0
minuit 10.80819N24N0

Graphique du 04-10-2019

 

Serveur OMMA